#timestamp,LO_Frequency,Hit 
1504252815.1,286047001.5,N
1504252816.0,286047001.5,N
1504252835.8,286047001.5,N
1504252855.6,286046999.7,N
1504252875.5,286047005.0,N
1504252895.3,286047006.2,N
1504252915.1,286047008.9,N
1504252935.9,286047011.7,P
1504252955.7,286047010.0,N
1504252975.5,286047009.5,N
1504252995.4,286047007.0,N
1504253015.2,286047006.0,N
1504253035.0,286047003.2,N
1504253035.9,286047003.2,N
1504253055.8,286047003.9,N
1504253075.6,286047004.5,N
1504253095.4,286047003.7,N
1504253115.3,286047003.5,N
1504253135.1,286047005.9,N
1504253136.0,286047005.9,N
1504253155.8,286047003.7,N
1504253175.7,286047001.9,N
1504253195.5,286047003.9,N
1504253215.3,286047001.5,N
1504253235.1,286047005.6,N
1504253255.9,286047004.7,N
1504253275.7,286047011.6,P
1504253295.6,286047007.5,N
1504253315.4,286047004.4,N
1504253335.2,286046999.9,N
1504253355.0,286046994.9,N
1504253355.9,286046994.9,N
1504253375.8,286046998.1,N
1504253395.6,286047003.7,N
1504253415.4,286047004.3,N
1504253435.3,286047000.1,N
1504253455.1,286047005.5,N
1504253475.8,286047002.1,N
1504253495.7,286046997.1,N
1504253515.5,286046997.3,N
1504253535.3,286047000.0,N
1504253555.2,286047005.2,N
1504253575.9,286047006.7,N
1504253595.7,286047004.9,N
1504253615.6,286047003.4,N
1504253635.4,286047003.7,N
1504253655.2,286047000.2,N
1504253675.0,286047002.5,N
1504253675.9,286047002.5,N
1504253695.8,286047002.0,N
1504253715.6,286047000.7,N
1504253735.4,286047004.4,N
1504253755.3,286047005.4,N
1504253775.1,286047007.6,N
1504253776.0,286047007.6,N
1504253795.8,286047009.2,N
1504253815.7,286047009.2,N
1504253835.5,286047010.8,N
1504253855.3,286047012.0,N
1504253875.2,286047007.5,N
1504253895.9,286047004.7,N
1504253915.7,286047003.9,N
1504253935.5,286047007.6,N
1504253955.4,286047005.8,N
1504253975.2,286047000.3,N
1504253995.0,286047000.9,N
1504253995.9,286047000.9,N
1504254015.8,286047004.0,N
1504254035.6,286047008.4,N
1504254055.4,286047008.2,N
1504254075.3,286047006.6,N
1504254095.1,286047006.7,N
1504254115.8,286047007.4,N
1504254135.7,286047006.7,N
1504254155.5,286047003.1,N
1504254175.3,286047001.4,N
1504254195.2,286047002.9,N
1504254215.9,286047005.2,N
1504254235.7,286047005.2,N
1504254255.6,286047007.3,N
1504254275.4,286047004.3,N
1504254295.2,286047000.6,N
1504254315.0,286047003.0,N
1504254316.0,286047003.0,N
1504254335.8,286047008.5,N
1504254355.6,286047008.5,N
1504254375.4,286047007.0,N
1504254395.3,286047009.1,P
1504254415.1,286047000.7,N
1504254435.8,286047004.0,N
1504254455.7,286047005.8,N
1504254475.5,286047007.3,N
1504254495.3,286047000.7,N
1504254515.2,286047000.2,N
1504254535.9,286047002.2,N
1504254555.7,286047004.1,N
1504254575.6,286047005.8,N
1504254595.4,286047003.7,N
1504254615.2,286047005.5,N
1504254635.1,286047004.0,N
1504254636.0,286047004.0,N
1504254655.8,286047005.9,N
1504254675.6,286047006.7,N
1504254695.5,286047006.1,N
1504254715.3,286047006.9,N
1504254735.1,286047000.2,N
1504254755.8,286046999.3,N
1504254775.7,286046998.3,N
1504254795.5,286046997.8,N
1504254815.3,286046999.4,N
1504254835.2,286046999.7,N
1504254855.9,286047004.1,N
1504254875.7,286047002.1,N
1504254895.6,286046999.9,N
1504254915.4,286047001.0,N
1504254935.2,286047003.5,N
1504254955.1,286047006.8,N
1504254956.0,286047006.8,N
1504254975.8,286047002.8,N
1504254995.6,286047000.3,N
1504255015.5,286047001.3,N
1504255035.3,286047004.7,N
1504255055.1,286047004.9,N
1504255075.8,286047002.7,N
1504255095.7,286046996.5,N
1504255115.5,286046995.9,N
1504255135.3,286046998.9,N
1504255155.2,286047002.2,N
1504255175.9,286047002.5,N
1504255195.7,286047002.2,N
1504255215.6,286047001.7,N
1504255235.4,286046996.6,N
1504255255.2,286046998.7,N
1504255275.1,286047001.1,N
1504255276.0,286047001.1,N
1504255295.8,286047000.7,N
1504255315.6,286046997.0,N
1504255335.5,286047000.4,N
1504255355.3,286047001.6,N
1504255375.1,286046996.9,N
1504255395.8,286046995.9,N
1504255415.7,286046994.1,N
1504255435.5,286046993.5,N
1504255455.3,286046993.4,N
1504255475.2,286046994.5,N
1504255495.9,286046998.0,N
1504255515.7,286046996.3,N
1504255535.6,286046996.1,N
1504255555.4,286046995.7,N
1504255575.2,286046996.4,N
1504255595.1,286046994.7,N
1504255596.0,286046994.7,N
1504255615.8,286046993.5,N
1504255635.6,286046993.3,N
1504255655.5,286046994.9,N
1504255675.3,286046996.9,N
1504255695.1,286047000.2,N
1504255715.9,286046998.6,N
1504255735.7,286047003.4,N
1504255755.5,286047004.7,N
1504255775.3,286047007.3,N
1504255795.2,286047008.7,N
1504255815.0,286047008.8,N
1504255815.9,286047008.8,N
1504255835.7,286047004.8,N
1504255855.6,286047007.8,N
1504255875.4,286047005.3,N
1504255895.2,286047005.8,N
1504255915.1,286047003.8,N
1504255916.0,286047003.8,N
1504255935.8,286047001.8,N
1504255955.6,286046999.8,N
1504255975.5,286047002.9,N
1504255995.3,286047005.4,N
1504256015.1,286047003.3,N
1504256035.9,286047003.8,N
1504256055.7,286047006.4,N
1504256075.5,286047011.5,N
1504256095.4,286047009.8,N
1504256115.2,286047010.5,N
1504256135.0,286047013.7,N
1504256135.9,286047013.7,N
1504256155.7,286047014.9,N
1504256175.6,286047012.8,N
1504256195.4,286047012.6,N
1504256215.2,286047009.3,N
1504256235.1,286047011.1,N
1504256236.0,286047011.1,N
1504256255.8,286047012.4,P
1504256275.7,286047000.1,N
1504256295.5,286046998.0,N
1504256315.3,286046995.6,N
1504256335.1,286046994.9,N
1504256355.9,286046996.5,N
1504256375.7,286046998.1,N
1504256395.5,286047001.8,N
